Dillon, MT

6:46 AM MST on November 23, 2017 (GMT -0700)
Dillon

Weather History for KDLN - May, 2013

Change the Weather History Date:

Sunday, May 12, 2013

  Actual Average Record
Temperature  
Mean Temperature 64 °F 50 °F  
Max Temperature 82 °F 63 °F 84 °F (2001)
Min Temperature 46 °F 36 °F 22 °F (1985)
Degree Days  
Heating Degree Days 1    
Month to date heating degree days 151  
Since 1 July heating degree days 7246  
Cooling Degree Days 0    
Month to date cooling degree days 0  
Year to date cooling degree days 0  
Growing Degree Days 14 (Base 50)    
Moisture  
Dew Point 33 °F    
Average Humidity 38    
Maximum Humidity 60    
Minimum Humidity 15    
Precipitation  
Precipitation 0.00 in 0.06 in 0.35 in (1942)
Month to date precipitation 0.05 0.57  
Year to date precipitation 0.59 2.69  
Snow  
Snow 0.00 in - - ()
Snow Depth 0.00 in    
Sea Level Pressure  
Sea Level Pressure 30.02 in    
Wind  
Wind Speed 11 mph (SW)    
Max Wind Speed 28 mph    
Max Gust Speed 32 mph    
Visibility 9 miles    
Events      
T = Trace of Precipitation, MM = Missing Value Source: NWS Daily Summary

Daily Weather History Graph

Daily Weather History Graph

Search for Another Location

Airport or City:

Trip Planner

Search our weather history database for the weather conditions in past years. The results will help you decide how hot, cold, wet, or windy it might be!

Date:

Astronomy

May. 12, 2013 Rise Set
Actual Time 6:03 AM MDT 8:50 PM MDT
Civil Twilight 5:29 AM MDT 9:24 PM MDT
Nautical Twilight 4:46 AM MDT 10:07 PM MDT
Astronomical Twilight 3:56 AM MDT 10:58 PM MDT
Moon 8:00 AM MDT (5/12) 11:21 PM MDT (5/12)
Length of Visible Light 15h 55m
Length of Day
14h 46m
Waxing Crescent, 7% of the Moon is Illuminated
May 12
Waxing Crescent
May 17
First Quarter
May 24
Full
May 31
Last Quarter
Jun 8
New

Hourly Weather History & Observations

Time (MDT) Temp. Dew Point Humidity Pressure Visibility Wind Dir Wind Speed Gust Speed Precip Events Conditions
12:53 AM 55.0 °F 32.0 °F 42% 30.10 in 10.0 mi SW 9.2 mph - N/A   Partly Cloudy
1:53 AM 53.1 °F 32.0 °F 45% 30.10 in 10.0 mi SW 10.4 mph - N/A   Clear
2:53 AM 50.0 °F 33.1 °F 52% 30.10 in 10.0 mi SSW 11.5 mph - N/A   Clear
3:53 AM 46.9 °F 33.1 °F 59% 30.11 in 10.0 mi SSW 5.8 mph - N/A   Clear
4:53 AM 50.0 °F 33.1 °F 52% 30.11 in 10.0 mi South 9.2 mph - N/A   Clear
5:53 AM 51.1 °F 32.0 °F 48% 30.11 in 10.0 mi South 9.2 mph - N/A   Clear
6:53 AM 50.0 °F 33.1 °F 52% 30.11 in 10.0 mi SSW 12.7 mph - N/A   Clear
7:53 AM 55.0 °F 34.0 °F 45% 30.11 in 10.0 mi SW 12.7 mph - N/A   Clear
8:53 AM 61.0 °F 35.1 °F 38% 30.11 in 10.0 mi SW 15.0 mph - N/A   Clear
9:53 AM 68.0 °F 35.1 °F 30% 30.08 in 10.0 mi SSW 11.5 mph - N/A   Clear
10:53 AM 73.9 °F 35.1 °F 24% 30.06 in 10.0 mi SW 12.7 mph - N/A   Clear
11:53 AM 77.0 °F 35.1 °F 22% 30.03 in 10.0 mi Variable 5.8 mph - N/A   Clear
12:53 PM 80.1 °F 35.1 °F 20% 30.00 in 10.0 mi SW 17.3 mph 23.0 mph N/A   Partly Cloudy
1:53 PM 80.1 °F 32.0 °F 17% 29.99 in 10.0 mi WSW 5.8 mph - N/A   Scattered Clouds
2:53 PM 82.0 °F 30.0 °F 15% 29.99 in 10.0 mi West 20.7 mph 29.9 mph N/A   Clear
3:53 PM 82.0 °F 30.9 °F 16% 29.97 in 9.0 mi West 17.3 mph 27.6 mph N/A   Clear
4:53 PM 80.1 °F 30.0 °F 16% 29.96 in 10.0 mi WNW 17.3 mph 24.2 mph N/A   Clear
5:53 PM 79.0 °F 30.9 °F 17% 29.94 in 10.0 mi WNW 9.2 mph - N/A   Clear
6:53 PM 77.0 °F 33.1 °F 20% 29.92 in 3.0 mi WSW 10.4 mph - N/A   Haze
7:00 PM 77.0 °F 33.8 °F 21% 30.06 in 2.5 mi SW 6.9 mph - N/A   Haze
7:09 PM 77.0 °F 32.0 °F 19% 30.06 in 10.0 mi West 10.4 mph - N/A   Clear
7:53 PM 77.0 °F 30.0 °F 18% 29.90 in 10.0 mi West 10.4 mph - N/A   Clear
8:53 PM 68.0 °F 32.0 °F 26% 29.91 in 10.0 mi WSW 9.2 mph - N/A   Clear
9:53 PM 66.9 °F 28.9 °F 24% 29.92 in 10.0 mi SSW 5.8 mph - N/A   Clear
10:53 PM 63.0 °F 32.0 °F 31% 29.93 in 10.0 mi SSW 12.7 mph - N/A   Clear
11:53 PM 60.1 °F 32.0 °F 35% 29.94 in 10.0 mi South 9.2 mph - N/A   Clear